Home > Time Zones > World Clock > Weather > Mali > Bamako > Past weeks

Flag for Mali Weather past 2 weeks in Bamako, Mali

Now
77 °F

Thunderstorms. Partly cloudy.


Feels Like: 78 °F
Forecast: N/A
Wind: 1 mph from North

Location: Bamako / Senou

Current Time: Oct 1, 2014 at 9:02:43 PM

Latest Report: Oct 1, 2014 at 8:00 PM


Visibility: N/A

Pressure: 29.95 "Hg

Humidity: 89%

Dew point: 73 °F

Location of BamakoLocation

Historic Weather in Bamako — Graph

°F

Bamako temperature yesterday

Maximum temperature yesterday: 95 °F (at 1:30 PM)
Minimum temperature yesterday: 72 °F (at 5:30 PM)
Average temperature yesterday: 79 °F

Past Weeks' High & Low Weather Summary

 TemperatureHumidityPressure
High95 °F (Sep 29, 2:30 PM)100% (Sep 17, 1:00 AM)30.09 "Hg (Sep 17, 1:00 AM)
Low68 °F (Sep 17, 4:00 AM)36% (Sep 29, 2:30 PM)29.83 "Hg (Sep 18, 5:00 PM)
Average79 °F83%29.97 "Hg
* Reported Sep 16 8:00 PM — Oct 1 8:00 PM, Bamako, Weather by CustomWeather, © 2014

Note: Actual official high and low records may vary slightly from our data, if they occured in-between our weather recording intervals... More about our weather records

Advertising

Bamako weather history for previous 24 hours

 ConditionsComfort  
Time TempWeatherWind HumidityBarometerVisibility
8:00 PM
Oct 1
77 °FThunderstorms. Partly cloudy.1 mph89%29.95 "HgN/A
7:30 PM77 °FThunderstorms. Partly cloudy.6 mph89%29.95 "HgN/A
7:00 PM77 °FThunderstorms. Passing clouds.7 mph89%29.92 "HgN/A
6:30 PM77 °FThunderstorms. Passing clouds.7 mph94%29.89 "HgN/A
6:00 PM75 °FThunderstorms. Scattered clouds.5 mph94%29.89 "HgN/A
5:30 PM73 °FThunderstorms. Scattered clouds.14 mph100%29.92 "Hg5 mi
5:00 PM75 °FStrong thunderstorms. Scattered clouds.23 mph94%29.92 "Hg4 mi
4:30 PM82 °FThunderstorms. Broken clouds.3 mph66%29.89 "HgN/A
4:00 PM86 °FThunderstorms. Broken clouds.6 mph62%29.89 "HgN/A
3:30 PM88 °FBroken clouds.7 mph52%29.86 "HgN/A
3:00 PM88 °FScattered clouds.5 mph52%29.89 "HgN/A
2:30 PM88 °FBroken clouds.6 mph52%29.89 "HgN/A
2:00 PM90 °FBroken clouds.3 mph52%29.89 "HgN/A
1:30 PM90 °FScattered clouds.5 mph52%29.92 "HgN/A
1:00 PM88 °FScattered clouds.5 mph59%29.92 "HgN/A
12:30 PM86 °FScattered clouds.5 mph62%29.92 "HgN/A
12:00 PM86 °FScattered clouds.3 mph62%29.95 "HgN/A
11:30 AM84 °FScattered clouds.3 mph66%29.95 "HgN/A
11:00 AM81 °FScattered clouds.5 mph79%29.95 "HgN/A
10:30 AM79 °FScattered clouds.6 mph84%29.98 "HgN/A
10:00 AM77 °FScattered clouds.3 mph83%29.98 "HgN/A
9:30 AM77 °FScattered clouds.5 mph83%29.98 "HgN/A
9:00 AM75 °FScattered clouds.5 mph83%29.95 "HgN/A
8:30 AM75 °FBroken clouds.3 mph89%29.98 "HgN/A
8:00 AM73 °FPartly sunny.3 mph94%29.95 "HgN/A
7:30 AM72 °FPartly sunny.1 mph100%29.95 "HgN/A
7:00 AM70 °FPartly sunny.1 mph100%29.92 "HgN/A
6:30 AM70 °FPartly sunny.1 mph100%29.92 "HgN/A
5:30 AM72 °FPassing clouds.2 mph100%29.89 "HgN/A
5:00 AM70 °FPassing clouds.2 mph100%29.89 "HgN/A
4:30 AM70 °FPassing clouds.5 mph100%29.89 "HgN/A
4:00 AM70 °FPassing clouds.5 mph100%29.86 "HgN/A
3:30 AM70 °FPassing clouds.5 mph100%29.89 "HgN/A
2:00 AM70 °FPassing clouds.No wind100%29.89 "HgN/A
1:30 AM72 °FPassing clouds.3 mph94%29.92 "HgN/A
1:00 AM72 °FPassing clouds.2 mph94%29.92 "HgN/A
12:30 AM72 °FPassing clouds.1 mph94%29.92 "HgN/A
12:00 AM72 °FPassing clouds.1 mph94%29.92 "HgN/A
11:30 PM
Sep 30
72 °FPassing clouds.6 mph94%29.92 "HgN/A
11:00 PM72 °FPassing clouds.8 mph94%29.89 "HgN/A
10:30 PM72 °FPassing clouds.8 mph88%29.89 "HgN/A
10:00 PM72 °FOvercast.9 mph88%29.92 "HgN/A
9:30 PM72 °FThunderstorms. Mostly cloudy.9 mph100%29.98 "HgN/A
9:00 PM72 °FThunderstorms. Overcast.7 mph94%30.01 "HgN/A
Weather by CustomWeather, © 2014

See weather overviewHow to use our weather pages